Wind_Speed
15 15 14 15 13 12 11 9 7 7 7 7 7 6 6 7 8 9 10 12 13 14 15 16 17 17 17 16 16 15 14 13 13 13 13 13 14 17 18 18 18 17 15
19 18 18 18 17 16 15 13 12 11 10 10 10 9 9 9 10 11 12 13 15 16 18 19 20 21 21 21 20 19 18 17 17 16 16 15 15 16 18 20 20 19 18
22 22 21 21 21 19 18 16 15 15 14 14 13 12 12 12 12 13 14 16 17 18 19 20 22 23 24 25 24 24 22 21 20 20 19 18 17 17 18 20 21 21 21
24 24 24 24 24 23 22 20 19 18 17 17 16 15 14 14 15 16 17 18 19 20 21 22 23 24 25 26 27 27 26 25 23 22 21 20 19 19 19 20 21 22 22
24 24 25 26 26 25 25 24 23 22 21 20 19 18 17 17 18 19 20 20 21 22 23 23 23 24 25 26 27 28 28 27 26 24 22 21 21 21 20 20 20 22 23
26 26 26 28 28 29 29 28 27 26 24 23 21 20 20 20 21 22 23 24 24 24 25 25 25 25 25 25 26 27 27 27 26 25 23 22 22 22 21 21 21 21 22
28 29 29 30 31 31 32 31 30 28 26 24 23 22 22 23 23 24 25 26 26 25 26 25 25 25 25 25 25 26 26 26 26 25 23 22 21 21 22 21 21 21 21
29 30 30 31 32 32 33 33 32 29 27 25 24 23 24 24 25 24 25 27 27 26 27 26 25 25 24 24 24 25 26 25 26 25 24 23 22 21 21 21 21 21 20
32 31 32 33 33 33 33 34 32 29 28 26 25 25 25 25 26 25 26 27 27 26 27 27 26 24 23 23 24 25 25 25 25 25 24 23 21 21 21 21 21 21 21
35 35 35 35 34 33 33 33 33 31 29 27 26 26 26 26 27 27 27 27 28 28 27 27 27 26 23 22 24 24 24 24 24 24 24 23 22 21 20 20 21 22 22
38 38 37 37 35 34 33 33 33 33 31 29 27 26 26 26 27 27 28 28 28 28 27 27 27 28 26 24 25 25 25 25 25 24 23 23 23 21 20 21 22 23 23
41 39 37 36 36 33 34 34 35 35 32 29 27 26 26 27 28 28 28 30 29 28 27 27 27 27 27 25 24 25 25 24 25 25 24 24 23 23 22 22 22 24 25
40 38 35 35 35 35 35 36 37 36 33 29 27 26 26 27 28 29 29 30 30 29 27 26 26 26 26 24 23 23 23 23 24 24 24 24 23 23 23 23 24 25 26
38 37 36 35 36 36 36 36 37 36 32 28 27 26 27 28 28 29 29 29 29 29 27 26 25 25 24 23 21 21 22 22 23 23 23 23 23 23 23 24 25 25 26
38 37 37 36 36 37 37 37 36 34 30 27 26 27 28 29 29 29 29 29 28 28 27 25 24 23 23 22 20 20 20 21 22 22 22 23 23 23 23 24 25 26 27
36 36 36 36 36 35 33 31 30 27 24 24 25 27 27 28 28 28 28 28 27 26 25 24 23 22 22 22 20 20 20 20 20 21 21 22 23 23 24 25 25 27 28
31 31 29 28 26 25 24 22 20 19 20 22 23 24 25 26 26 27 27 27 26 25 23 23 22 21 21 21 20 20 21 22 21 20 21 21 22 23 24 24 25 27 28
15 15 15 15 15 15 15 16 16 17 19 21 22 23 23 24 24 25 26 25 25 23 23 22 22 21 21 21 21 20 21 21 21 20 20 19 19 20 21 22 22 24 25
6 7 7 8 9 11 13 15 16 18 19 21 21 22 22 22 23 24 25 25 24 23 23 23 22 22 20 20 20 20 20 21 21 21 21 20 19 19 19 19 19 20 22
2 4 6 8 10 11 13 15 17 18 19 20 21 21 22 22 22 23 24 24 23 23 23 22 22 22 21 20 19 18 19 21 22 22 23 23 22 22 21 21 21 21 22
6 7 9 11 12 14 15 17 18 19 20 21 21 21 21 22 22 23 23 23 23 23 23 23 22 22 20 19 18 18 19 20 23 24 24 24 24 24 24 24 25 25 25
10 11 12 14 15 17 18 20 21 21 22 22 22 22 22 22 22 23 23 23 23 23 23 22 22 21 20 19 18 17 17 18 20 21 23 24 25 26 26 27 28 28 28
13 14 15 17 18 19 20 21 22 23 23 23 23 23 22 22 21 22 22 22 23 23 22 22 22 21 21 19 18 17 17 17 17 17 18 21 23 26 26 27 28 30 31
15 16 18 19 20 21 21 22 22 23 23 24 24 23 22 21 21 22 21 21 22 22 22 21 21 21 20 19 19 18 18 17 17 17 17 19 20 22 24 26 28 29 31
15 16 17 18 20 21 21 22 23 23 23 23 23 22 22 21 21 22 21 20 19 19 19 20 20 20 19 19 19 19 18 18 18 18 19 20 21 22 23 25 27 28 30
15 16 17 17 18 19 20 20 20 21 21 22 22 22 21 21 21 21 20 19 18 18 17 17 17 18 18 18 18 18 18 18 19 19 20 21 22 23 24 26 27 28 29
Wind_Direction
260 261 262 265 266 269 271 273 281 287 290 293 295 294 289 284 279 275 274 273 272 270 268 267 267 266 266 266 266 268 270 271 272 271 268 261 254 247 242 241 241 241 243
261 263 263 263 263 263 267 270 271 274 278 284 286 286 287 285 285 284 281 278 276 274 273 271 269 268 268 268 268 269 269 269 270 273 271 265 260 254 246 243 242 242 243
266 266 266 266 264 263 263 268 272 274 274 277 281 283 285 283 284 285 285 284 281 279 277 275 272 270 269 269 269 269 269 269 269 271 271 269 263 260 254 247 243 242 243
270 270 270 268 266 263 262 264 269 274 275 273 273 278 283 285 285 285 285 285 284 283 282 279 276 274 271 270 269 270 269 269 269 268 269 267 265 263 259 256 249 244 243
273 273 272 269 265 262 260 263 268 272 274 272 271 274 278 281 285 286 284 283 283 284 285 284 284 281 277 274 271 270 268 267 266 266 265 264 263 262 261 260 257 250 245
273 274 273 269 265 261 259 261 267 271 272 271 270 272 275 280 284 284 283 283 282 284 285 287 287 284 281 278 275 271 268 266 264 262 261 261 260 259 259 259 259 257 251
275 275 273 271 267 261 257 259 264 267 268 269 268 269 273 278 279 281 283 284 284 285 285 286 285 284 281 278 275 271 267 263 260 258 258 258 258 258 257 258 258 257 254
277 280 278 279 273 266 258 256 259 263 265 264 263 267 271 275 279 280 281 282 284 284 285 283 282 282 281 279 274 269 264 261 257 255 255 256 256 256 255 255 255 254 252
277 278 281 284 279 272 265 259 256 260 261 260 261 264 269 273 277 279 279 281 283 282 282 284 282 280 278 279 275 268 263 259 254 252 252 252 254 255 254 251 252 250 249
279 280 283 285 282 275 269 263 258 258 257 256 259 263 267 272 275 277 279 279 281 282 282 282 282 280 277 276 274 269 263 258 253 250 249 250 251 252 252 250 249 248 247
281 282 284 285 284 277 271 264 258 255 254 254 257 261 265 269 273 277 279 280 281 282 283 281 280 279 278 276 272 268 262 257 253 250 247 248 248 249 250 250 249 247 247
281 284 284 285 283 275 269 262 256 253 251 252 255 259 264 269 272 276 278 281 283 283 283 282 278 278 278 277 271 266 261 256 252 248 246 246 247 247 249 250 250 248 248
282 285 285 286 282 273 267 262 255 251 249 250 254 259 265 269 273 277 279 281 284 284 283 281 279 278 276 276 270 264 260 253 249 247 245 244 245 247 250 252 253 251 250
286 286 285 285 281 273 264 260 253 248 245 247 253 259 265 270 274 277 279 281 282 283 283 280 279 277 275 272 270 263 256 251 248 245 244 244 245 247 251 254 255 255 254
282 282 280 278 275 269 261 254 248 243 242 247 255 262 268 272 275 277 279 280 281 282 282 280 278 275 274 269 267 261 254 251 248 245 243 244 246 248 252 256 257 257 257
274 274 272 269 266 259 253 247 241 239 245 253 260 265 269 272 275 276 277 278 279 280 279 278 276 275 272 267 264 259 254 251 248 245 244 245 248 250 253 256 258 258 257
265 263 260 255 248 243 239 236 238 246 253 259 264 267 269 272 273 274 275 276 276 277 275 275 275 276 271 265 263 261 256 252 249 246 246 247 251 253 255 257 259 259 259
243 238 236 235 234 236 238 243 249 253 258 262 265 267 269 270 272 272 272 272 273 272 271 272 273 274 270 265 262 262 258 251 247 244 244 246 251 255 256 257 259 261 260
216 220 233 242 247 250 254 257 259 261 263 265 266 267 269 269 269 269 269 269 269 269 268 269 270 272 271 268 264 259 256 251 246 243 242 243 249 254 256 258 261 263 263
250 255 261 266 268 266 268 269 269 267 266 266 268 269 270 269 268 268 268 268 268 267 266 267 268 269 269 268 268 264 259 253 249 245 244 244 249 253 257 260 262 265 265
296 283 275 274 275 273 272 272 271 270 269 269 268 269 269 269 268 268 268 268 267 266 265 265 265 267 268 267 269 268 264 258 253 250 247 247 250 253 259 262 264 266 267
294 289 284 280 277 275 272 270 271 270 269 268 268 268 268 268 268 268 268 267 266 266 264 263 263 264 266 266 269 271 271 268 260 255 254 252 253 255 259 262 263 263 264
294 290 286 284 281 278 276 273 272 271 271 270 269 268 268 268 267 268 268 266 265 264 262 262 261 262 264 266 268 271 269 272 269 266 263 260 260 260 261 263 264 263 264
299 292 288 285 284 282 279 276 274 273 272 270 269 269 268 266 265 265 266 266 265 264 263 261 261 261 263 264 266 268 270 270 271 270 271 271 269 267 268 270 268 266 266
310 303 297 292 287 284 281 278 275 272 270 269 268 267 265 263 260 260 261 262 263 264 263 262 261 261 262 263 265 268 270 271 273 274 273 273 274 274 273 273 272 269 269
324 316 307 300 293 287 283 279 274 271 268 266 265 265 264 261 258 258 258 259 261 262 263 262 262 262 262 262 263 266 270 273 276 278 277 278 278 277 276 275 274 274 273
Height
5905 5905 5905 5905 5905 5904 5904 5904 5903 5903 5902 5901 5900 5900 5899 5899 5899 5899 5899 5899 5900 5900 5901 5901 5902 5902 5903 5903 5903 5904 5904 5905 5905 5905 5906 5906 5907 5908 5910 5912 5913 5915 5916
5901 5902 5902 5902 5902 5902 5901 5901 5901 5901 5900 5900 5899 5898 5898 5897 5897 5897 5897 5897 5897 5897 5898 5898 5899 5899 5900 5900 5900 5901 5901 5902 5902 5903 5903 5904 5904 5905 5906 5908 5910 5911 5913
5897 5897 5898 5898 5898 5898 5898 5898 5898 5898 5898 5898 5897 5897 5896 5895 5895 5894 5894 5894 5894 5894 5894 5894 5894 5895 5896 5896 5897 5897 5897 5898 5898 5899 5900 5900 5901 5902 5903 5904 5906 5907 5909
5892 5893 5893 5894 5894 5894 5894 5894 5894 5895 5895 5895 5894 5894 5893 5892 5892 5891 5891 5891 5890 5890 5889 5889 5889 5890 5890 5891 5891 5892 5892 5893 5893 5894 5895 5896 5897 5898 5899 5900 5901 5903 5905
5887 5888 5888 5888 5889 5889 5889 5889 5890 5890 5890 5891 5891 5890 5890 5889 5888 5887 5887 5887 5886 5885 5885 5884 5884 5884 5884 5885 5885 5886 5887 5887 5888 5889 5890 5891 5892 5893 5894 5896 5897 5898 5900
5882 5882 5882 5882 5882 5883 5884 5884 5884 5885 5885 5886 5886 5886 5885 5885 5884 5883 5882 5881 5881 5881 5880 5879 5879 5879 5879 5879 5879 5880 5880 5881 5882 5884 5885 5886 5887 5889 5890 5891 5892 5893 5895
5876 5876 5875 5875 5875 5876 5877 5878 5878 5879 5879 5880 5880 5880 5880 5879 5879 5878 5877 5875 5875 5875 5875 5875 5874 5873 5873 5873 5873 5874 5874 5875 5876 5878 5879 5881 5882 5883 5885 5886 5887 5888 5890
5869 5869 5869 5868 5867 5868 5869 5870 5871 5872 5873 5873 5874 5874 5874 5874 5873 5873 5872 5870 5869 5869 5868 5868 5868 5867 5867 5867 5867 5868 5868 5869 5870 5872 5874 5875 5877 5878 5880 5881 5882 5884 5885
5861 5861 5861 5860 5860 5860 5860 5862 5863 5864 5866 5867 5867 5868 5868 5868 5867 5867 5866 5864 5863 5863 5862 5861 5862 5862 5862 5862 5861 5861 5862 5863 5865 5866 5868 5870 5872 5873 5875 5876 5878 5879 5881
5853 5853 5852 5852 5852 5852 5853 5854 5856 5857 5858 5859 5860 5861 5862 5862 5861 5860 5860 5859 5858 5857 5857 5856 5855 5855 5856 5856 5855 5855 5856 5857 5859 5861 5863 5865 5866 5868 5870 5871 5873 5875 5877
5843 5844 5844 5844 5844 5844 5845 5846 5848 5850 5851 5852 5853 5854 5854 5855 5854 5854 5853 5852 5852 5851 5851 5850 5850 5849 5849 5850 5850 5849 5850 5851 5853 5855 5857 5859 5861 5863 5864 5866 5868 5870 5872
5833 5834 5834 5835 5835 5836 5838 5839 5840 5841 5843 5845 5846 5846 5847 5848 5847 5847 5846 5844 5844 5845 5845 5844 5843 5843 5842 5843 5843 5843 5843 5845 5847 5849 5851 5853 5855 5857 5859 5861 5863 5865 5866
5824 5825 5825 5826 5827 5828 5829 5830 5831 5833 5835 5836 5838 5839 5840 5840 5840 5839 5839 5838 5838 5838 5838 5838 5837 5837 5836 5836 5836 5836 5837 5839 5841 5843 5845 5847 5849 5851 5853 5855 5857 5859 5860
5816 5817 5817 5817 5817 5818 5820 5821 5823 5825 5826 5828 5830 5832 5833 5833 5833 5832 5832 5832 5831 5831 5831 5831 5831 5831 5830 5831 5831 5831 5832 5833 5835 5837 5839 5841 5843 5845 5847 5849 5851 5853 5854
5808 5807 5808 5808 5808 5809 5811 5812 5814 5816 5818 5820 5822 5824 5825 5825 5825 5825 5825 5824 5825 5824 5824 5824 5825 5825 5825 5825 5825 5825 5826 5828 5830 5832 5834 5836 5838 5840 5842 5843 5845 5846 5848
5799 5798 5798 5799 5800 5801 5803 5805 5807 5809 5811 5814 5815 5817 5817 5818 5818 5818 5818 5818 5818 5818 5818 5818 5819 5819 5820 5820 5819 5820 5821 5823 5824 5826 5828 5830 5832 5834 5835 5837 5838 5840 5841
5791 5791 5791 5792 5793 5795 5797 5799 5801 5803 5806 5808 5809 5810 5810 5811 5811 5811 5811 5811 5812 5812 5812 5812 5813 5814 5814 5814 5814 5815 5816 5817 5819 5821 5823 5824 5826 5828 5829 5830 5831 5833 5834
5784 5786 5787 5788 5790 5791 5793 5795 5797 5799 5800 5802 5802 5803 5804 5804 5804 5805 5805 5806 5806 5806 5807 5807 5808 5808 5809 5809 5810 5810 5811 5812 5814 5816 5817 5819 5820 5822 5823 5824 5825 5825 5827
5783 5784 5785 5787 5788 5789 5790 5792 5793 5794 5795 5796 5796 5797 5797 5798 5798 5799 5799 5800 5800 5801 5802 5802 5803 5804 5804 5804 5804 5805 5805 5807 5808 5810 5812 5813 5815 5816 5818 5818 5819 5820 5821
5782 5783 5784 5785 5786 5787 5787 5788 5788 5789 5789 5790 5790 5790 5791 5792 5792 5793 5793 5794 5794 5795 5796 5797 5798 5798 5799 5799 5799 5799 5800 5801 5803 5804 5806 5807 5809 5811 5812 5813 5814 5814 5815
5781 5782 5782 5782 5783 5783 5783 5782 5782 5783 5783 5784 5784 5785 5785 5785 5786 5786 5787 5788 5788 5789 5790 5791 5792 5793 5793 5793 5794 5794 5795 5796 5797 5798 5800 5802 5803 5805 5806 5807 5808 5809 5809
5780 5779 5779 5778 5778 5777 5777 5776 5776 5776 5777 5777 5778 5779 5779 5779 5779 5780 5781 5781 5782 5784 5785 5786 5787 5788 5788 5789 5789 5790 5790 5791 5792 5793 5794 5795 5797 5798 5799 5800 5801 5802 5803
5776 5775 5774 5773 5772 5771 5771 5770 5770 5770 5770 5770 5771 5772 5773 5773 5773 5774 5774 5775 5776 5777 5778 5780 5781 5782 5783 5784 5785 5785 5786 5787 5787 5787 5788 5789 5790 5791 5792 5793 5793 5794 5794
5772 5770 5769 5767 5766 5765 5764 5763 5763 5763 5763 5763 5763 5765 5766 5766 5767 5767 5768 5769 5770 5771 5772 5774 5775 5776 5778 5779 5780 5781 5781 5782 5783 5783 5784 5784 5784 5785 5785 5786 5786 5786 5786
5767 5765 5763 5761 5760 5758 5757 5756 5756 5755 5755 5756 5756 5757 5758 5759 5760 5760 5762 5763 5764 5765 5766 5768 5769 5770 5772 5773 5775 5776 5776 5777 5778 5778 5779 5779 5779 5779 5779 5778 5778 5778 5778
5763 5760 5758 5755 5753 5752 5750 5749 5749 5748 5748 5748 5749 5750 5751 5752 5753 5754 5756 5757 5759 5760 5761 5762 5764 5765 5766 5768 5769 5770 5771 5772 5772 5773 5773 5773 5772 5772 5772 5771 5770 5770 5769